Location: Paris
(48.6709°N, 2.3750°E)
Time: 13:06:45
(UTC+02:00)

CAS-4B - Pass Details

Date: 10 July 2022
Orbit: 522 x 536 km, 43.0° (Epoch: 18 August)

Event Time Altitude Azimuth Distance (km) Brightness Sun altitude
Rises 23:18:59 0° 210° (SSW) 2,634 ? -11.0°
Reaches altitude 10° 23:22:01 10° 185° (S) 1,748 ? -11.3°
Enters shadow 23:22:20 11° 181° (S) 1,681 ? -11.3°
